Home   Weather   Inuvik   Past weeks

Flag for Canada Past Weather in Inuvik, Northwest Territories, Canada — Yesterday and Last 2 Weeks

Now
25 °F

Passing clouds.


Feels Like: 17 °F
Forecast: 15 / 36 °F
Wind: 7 mph from Southeast

Location: Inuvik

Current Time: Apr 24, 2018 at 12:23:41 pm

Latest Report: Apr 24, 2018 at 11:00 am


Visibility: 15 mi

Pressure: 29.93 "Hg

Humidity: 54%

Dew Point: 10 °F

Location of InuvikLocation

Past Weather in Inuvik — Graph

°F

Inuvik Temperature Yesterday

Maximum temperature yesterday: 28 °F (at 6:00 pm)
Minimum temperature yesterday: -6 °F (at 7:00 am)
Average temperature yesterday: 12 °F

High & Low Weather Summary for the Past Weeks

 TemperatureHumidityPressure
High32 °F (Apr 11, 5:00 pm)85% (Apr 12, 11:00 pm)30.65 "Hg (Apr 12, 11:00 pm)
Low-18 °F (Apr 19, 6:00 am)33% (Apr 11, 2:00 pm)29.52 "Hg (Apr 12, 2:00 am)
Average7 °F62%30.14 "Hg
* Reported Apr 9 11:00 am — Apr 24 11:00 am, Inuvik. Weather by CustomWeather, © 2018

Note: Actual official high and low records may vary slightly from our data, if they occured in-between our weather recording intervals... More about our weather records

Advertising

Inuvik Weather History for the Previous 24 Hours

Scroll right to see more
 ConditionsComfort  
Time TempWeatherWind HumidityBarometerVisibility
11:00 am
Tue, Apr 24
25 °FPassing clouds.7 mph54%29.93 "Hg15 mi
8:00 am16 °FClear.7 mph67%29.93 "Hg15 mi
7:00 am14 °FClear.9 mph73%29.93 "Hg15 mi
6:00 am16 °FClear.10 mph67%29.93 "Hg15 mi
5:00 am16 °FClear.5 mph67%29.93 "Hg15 mi
4:00 am19 °FPassing clouds.6 mph63%29.92 "Hg15 mi
3:00 am21 °FPassing clouds.8 mph58%29.92 "Hg15 mi
2:00 am19 °FPassing clouds.7 mph63%29.93 "Hg15 mi
1:00 am21 °FPassing clouds.9 mph58%29.93 "Hg15 mi
12:00 am21 °FPassing clouds.12 mph58%29.93 "Hg15 mi
11:00 pm
Mon, Apr 23
23 °FScattered clouds.10 mph58%29.94 "Hg15 mi
10:00 pm25 °FScattered clouds.13 mph54%29.94 "Hg15 mi
9:00 pm28 °FPassing clouds.12 mph51%29.96 "Hg15 mi
8:00 pm28 °FPassing clouds.12 mph55%29.97 "Hg15 mi
7:00 pm28 °FPassing clouds.12 mph51%29.98 "Hg15 mi
6:00 pm28 °FPassing clouds.13 mph51%30.01 "Hg15 mi
5:00 pm27 °FPassing clouds.12 mph46%30.02 "Hg15 mi
4:00 pm23 °FPassing clouds.14 mph50%30.04 "Hg15 mi
3:00 pm23 °FPassing clouds.8 mph50%30.06 "Hg15 mi
2:00 pm19 °FPassing clouds.7 mph49%30.08 "Hg15 mi
1:00 pm16 °FSunny.7 mph53%30.09 "Hg15 mi
12:00 pm12 °FSunny.7 mph57%30.11 "Hg15 mi
Weather by CustomWeather, © 2018

See weather overview